Temp
20 21 21 22 22 23 23 22 21 21 21 21 22 22 22 22 22 22 22 22 22 22 21 21 20 20 20 20 20 20 20 20 20 20 20 20 20 20 20 19 19 19 19 19 19 20 20 20 20 19 19 19 19 19 20 20 20 19 19 19 19 19 18 18 18 18 18 18 17 18 18 18 18 18 18 18 18 17 17 17 17 17 17 17 17
20 20 21 22 22 23 22 22 21 21 21 21 21 22 22 22 22 21 22 22 22 21 21 20 20 20 20 20 20 20 20 20 20 20 20 20 20 20 20 19 19 19 19 19 19 20 20 19 19 19 19 19 19 19 19 19 19 19 19 19 19 19 19 19 19 19 19 19 18 18 18 17 18 18 18 18 18 17 17 17 17 17 17 16 16
22 21 21 21 22 22 22 22 21 21 20 21 21 22 22 22 22 21 22 22 21 21 20 20 20 20 20 20 20 20 20 20 20 20 19 19 20 19 19 19 19 19 19 19 19 19 19 19 19 19 19 19 19 19 19 19 19 19 19 19 19 19 19 19 19 19 19 19 19 19 19 18 18 18 18 18 18 18 17 17 17 16 16 16 16
23 22 21 21 22 22 22 22 22 21 20 20 21 22 22 22 21 21 22 21 21 20 20 20 20 20 20 20 20 20 20 20 20 20 20 19 19 19 19 19 19 19 19 19 19 19 19 19 19 19 18 18 18 19 19 19 19 20 20 19 19 19 18 18 18 18 18 18 19 19 19 19 19 18 18 18 18 18 17 17 16 16 16 16 16
23 22 22 21 22 22 22 22 22 21 20 20 21 21 22 21 21 22 22 21 20 20 20 20 20 20 19 20 20 20 20 20 20 20 20 19 19 19 19 19 19 19 19 19 19 19 18 18 18 18 18 18 18 19 20 20 20 20 20 19 19 19 18 18 18 18 18 18 18 18 19 19 18 17 17 17 18 17 17 17 17 16 16 16 16
23 23 23 22 21 21 22 22 22 22 21 21 21 21 21 21 21 22 21 20 20 20 20 19 19 19 19 19 20 20 20 20 20 20 19 19 19 19 19 19 19 19 19 19 19 19 18 18 18 18 18 18 18 19 20 20 20 20 19 19 19 19 18 18 18 18 18 19 18 18 18 19 18 17 17 17 17 17 17 17 17 17 16 16 16
23 23 23 22 21 21 22 22 22 22 22 21 21 21 21 21 22 22 21 20 20 19 19 19 19 19 19 19 19 20 19 20 19 20 19 19 19 19 19 19 19 19 19 19 19 19 18 18 18 18 18 18 19 19 20 20 20 20 19 19 19 19 19 19 19 19 19 19 19 18 18 19 18 17 17 17 17 17 17 17 16 16 16 16 16
23 23 23 22 21 20 21 22 22 22 22 22 22 22 21 22 22 21 20 20 20 19 19 19 19 19 19 19 19 19 19 19 19 19 19 19 19 19 19 19 19 19 19 19 19 19 19 18 18 18 18 18 19 19 20 20 20 20 19 19 19 19 19 19 19 19 20 20 20 18 18 19 18 17 17 17 17 16 16 16 16 16 16 16 16
22 23 23 22 20 19 21 22 22 22 22 22 22 22 22 22 21 21 20 20 20 19 19 19 19 19 19 19 19 19 19 19 19 19 19 19 19 19 19 19 19 19 19 19 19 19 19 19 18 18 18 18 19 20 20 20 20 20 19 19 19 19 19 19 19 20 20 20 20 19 19 19 19 18 17 17 17 16 16 16 17 16 16 16 16
22 23 23 22 19 19 20 21 22 22 22 22 22 22 21 21 21 20 20 20 20 19 19 19 19 19 19 19 19 19 19 19 19 19 19 19 19 19 19 19 19 19 19 19 19 19 19 19 18 19 18 18 19 20 20 20 20 20 20 20 20 20 20 20 20 20 20 20 20 20 20 20 20 19 17 17 16 16 16 16 17 16 16 16 16
21 22 22 20 18 19 20 20 21 21 21 21 21 21 21 21 20 20 20 20 19 19 19 19 19 19 19 19 19 19 19 19 19 19 19 19 19 19 19 19 19 19 19 19 19 19 19 19 19 19 19 19 19 20 20 20 20 20 20 20 20 20 20 21 21 21 20 20 20 21 20 20 20 20 18 17 17 17 16 16 17 16 16 16 15
22 22 21 19 18 19 19 19 19 20 20 20 20 20 20 20 20 20 19 19 19 19 19 19 19 19 19 19 19 19 19 19 19 19 19 19 19 19 19 19 19 19 19 19 19 19 19 19 19 19 19 19 19 20 20 20 20 20 20 20 20 20 21 21 21 22 21 20 21 21 21 21 21 20 20 19 18 17 17 17 17 16 16 16 15
22 22 20 19 18 18 18 19 19 19 19 20 19 19 19 19 19 19 19 19 19 19 19 19 19 19 19 19 19 19 20 20 19 19 19 19 19 19 19 19 19 19 19 19 19 19 19 19 19 19 19 19 19 19 20 20 20 20 20 20 21 21 21 21 22 22 21 21 22 22 21 21 21 21 20 20 19 18 17 17 17 16 16 15 15
22 21 20 19 19 18 18 19 19 19 19 19 19 19 19 19 19 19 19 19 19 19 19 19 19 19 19 19 19 20 20 20 20 20 20 19 19 19 19 20 20 20 19 19 19 20 19 19 19 19 19 19 19 19 20 20 20 20 21 21 21 21 21 22 22 22 21 21 22 22 21 21 21 21 20 20 19 17 17 17 16 16 16 15 15
22 21 20 19 19 18 18 18 18 19 19 19 19 19 19 19 19 19 19 19 19 19 19 19 19 19 20 20 20 20 20 20 20 20 20 20 20 20 20 20 20 20 20 20 20 20 19 19 19 19 19 19 19 19 20 20 20 20 21 21 21 21 21 22 22 22 21 21 22 22 22 21 21 21 20 20 19 17 17 17 16 15 16 16 15
22 21 20 19 18 18 19 19 18 18 19 19 19 19 19 19 19 19 19 19 19 19 19 19 19 20 20 20 20 20 20 20 20 20 20 20 20 20 20 20 20 20 20 20 20 20 20 19 19 19 19 19 19 19 20 20 20 21 21 21 21 21 21 22 22 23 21 21 22 22 22 22 21 21 20 20 19 17 16 16 16 15 15 16 15
21 21 19 19 18 18 19 19 18 19 19 19 19 19 19 19 19 19 19 19 19 19 19 19 20 20 19 19 19 19 19 19 19 20 20 20 20 20 20 20 21 21 21 21 20 20 20 20 20 19 19 19 19 20 20 21 21 21 21 21 21 21 22 22 22 22 21 21 22 22 22 22 21 21 21 20 19 18 17 16 16 15 15 15 15
20 20 19 18 18 18 18 18 19 19 19 19 19 19 19 19 19 19 19 19 19 20 20 20 20 19 19 19 19 19 19 19 19 19 19 20 20 20 20 20 21 21 21 21 21 21 20 20 20 20 20 20 20 20 20 21 21 21 21 21 22 22 22 22 22 22 21 21 22 22 22 22 22 22 21 20 19 18 17 16 16 16 15 15 15
19 19 19 18 18 18 18 18 18 19 19 19 19 19 19 19 19 19 19 19 20 20 20 20 20 19 19 19 19 19 19 19 19 19 19 19 20 20 20 20 21 21 21 21 21 21 21 20 20 20 20 20 20 20 20 21 21 21 21 21 22 22 22 22 22 22 21 21 22 23 22 22 22 22 22 21 20 19 17 17 16 16 16 15 15
19 19 18 18 18 18 18 18 18 18 18 19 19 19 19 19 19 19 19 20 20 20 20 20 20 20 20 20 19 19 19 19 19 19 19 19 20 20 20 20 20 21 21 21 21 21 21 21 20 20 20 20 20 20 20 21 21 21 21 22 22 22 22 23 22 22 22 22 22 23 23 22 22 22 22 21 20 19 18 17 17 17 16 15 15
19 19 19 18 18 18 18 18 18 18 18 18 18 19 19 19 19 19 19 19 20 20 20 19 20 20 20 20 19 19 19 19 19 19 19 20 20 20 20 20 20 20 20 20 21 21 21 21 21 20 20 20 20 20 20 21 21 21 22 22 22 22 22 22 23 22 21 22 22 23 23 22 22 22 22 21 20 19 19 18 17 17 16 16 15
20 19 19 19 19 18 18 18 18 18 18 18 18 19 19 19 19 19 19 19 19 19 20 20 20 20 20 20 20 19 19 19 19 19 19 20 20 20 20 20 20 20 20 20 20 21 22 22 21 21 21 20 20 20 20 21 21 21 22 22 22 22 22 22 23 22 21 22 22 22 22 22 22 22 22 22 21 20 19 19 18 17 16 16 16
20 20 19 19 19 18 18 18 18 18 18 18 18 19 19 19 19 19 19 19 19 20 20 20 20 20 20 20 19 19 19 19 19 19 19 20 20 20 20 20 19 20 20 20 20 20 21 21 22 21 21 21 21 20 20 21 21 21 21 21 22 22 22 22 22 22 22 22 22 22 22 22 22 22 22 22 21 20 19 18 18 17 17 16 16
21 20 19 19 19 19 19 19 19 19 19 19 18 19 19 19 19 19 19 19 19 20 20 20 20 20 20 19 19 19 19 19 19 19 19 19 19 19 19 19 19 19 19 19 19 20 20 21 22 22 22 21 21 21 20 20 20 20 21 21 22 22 22 22 22 22 22 22 22 22 22 22 22 22 22 22 22 21 20 19 18 18 17 17 16
20 20 20 19 19 19 19 19 19 19 19 19 19 19 19 19 19 19 19 20 20 19 20 20 20 19 19 20 19 20 20 20 20 19 19 19 19 19 19 19 19 19 19 19 20 20 19 20 21 21 22 22 22 21 21 21 20 20 21 22 22 22 22 22 22 22 22 22 22 22 22 22 22 22 22 22 22 21 21 20 19 19 18 18 17
20 20 20 19 19 19 19 19 19 19 20 20 20 20 20 20 20 20 20 20 20 20 20 20 19 19 20 20 20 20 20 20 20 19 19 19 19 19 19 19 19 19 19 19 20 20 19 19 20 21 21 22 22 22 22 21 21 21 22 22 22 22 22 22 22 22 22 22 22 22 22 22 22 22 22 22 21 21 21 21 20 19 19 18 17
19 19 19 19 19 19 20 20 20 20 20 20 20 20 20 20 20 20 20 20 20 20 20 20 20 20 20 20 20 20 20 20 20 19 19 19 19 19 19 19 19 19 19 19 19 19 19 20 20 20 21 21 21 21 22 22 22 22 22 22 22 22 22 22 22 22 22 22 22 22 21 22 21 21 21 21 21 21 21 20 20 19 19 18 18
18 18 18 19 19 20 20 20 20 20 20 20 20 20 20 20 20 21 21 20 20 20 20 20 20 20 20 20 20 19 19 20 19 19 19 19 19 19 19 19 19 19 19 20 20 20 20 20 20 20 20 20 21 21 22 22 22 22 22 22 22 22 22 22 22 22 22 22 22 21 21 21 21 21 21 21 21 21 20 20 20 19 19 18 18
17 17 18 19 20 20 20 20 21 21 21 21 21 21 21 21 21 21 21 21 21 20 20 20 20 20 20 20 20 19 19 19 19 19 19 19 19 19 19 19 19 19 20 20 20 20 20 20 20 20 20 21 21 21 22 22 22 22 22 22 22 22 22 22 22 22 22 22 22 21 21 21 21 21 20 20 20 20 20 20 19 19 18 18 18
17 18 19 20 20 20 21 21 21 21 21 21 21 21 21 21 21 21 21 21 21 20 20 20 20 20 20 19 20 19 19 19 19 19 19 19 19 19 19 19 19 19 19 20 20 20 20 20 20 20 21 21 21 21 21 21 22 22 22 22 22 22 22 22 22 22 22 22 21 21 21 21 21 21 20 20 20 20 20 19 19 19 18 18 17
18 19 19 20 21 20 21 21 21 21 21 21 21 21 21 21 20 21 20 21 21 20 20 20 20 20 19 19 20 20 19 19 19 19 19 19 19 19 19 19 19 19 19 19 19 20 20 20 20 20 20 20 20 21 21 21 21 21 21 21 21 21 21 21 21 21 21 21 21 21 21 21 21 21 20 20 20 20 20 19 19 19 18 18 17
19 19 20 20 20 21 21 21 21 21 21 21 21 21 21 20 20 20 20 20 20 19 18 19 20 19 19 19 19 19 19 19 19 19 19 19 19 19 19 19 19 19 19 19 19 19 20 20 20 20 20 20 20 20 20 20 21 21 21 21 21 21 21 21 21 21 21 21 20 20 20 20 20 20 20 20 20 20 20 20 19 19 18 18 18
20 20 21 21 21 21 21 21 21 21 21 20 21 21 21 20 20 20 20 19 19 19 18 18 18 19 19 19 19 19 19 19 19 19 19 19 19 19 19 19 19 19 19 19 19 19 20 19 19 19 19 19 20 20 20 20 20 20 20 20 20 20 20 20 20 20 20 20 20 20 20 20 20 20 20 20 20 20 20 19 19 19 19 18 18
20 21 21 20 20 21 21 21 21 20 20 20 21 21 20 20 20 20 20 19 19 20 20 19 18 18 18 19 19 19 19 19 19 19 19 19 19 19 19 19 19 19 19 19 19 19 19 19 19 19 19 19 19 19 19 20 20 20 20 20 20 20 20 20 20 20 20 20 20 20 20 20 20 20 20 19 19 19 19 19 19 19 19 18 18
21 21 20 20 20 20 20 20 20 20 20 20 21 20 19 19 19 20 20 19 19 20 20 20 19 18 18 18 18 19 19 19 19 19 19 19 19 19 19 19 19 19 19 19 19 19 19 19 19 19 19 19 19 19 19 19 20 20 20 20 20 20 20 20 20 20 20 20 20 20 20 20 20 20 20 19 19 19 19 19 19 19 19 19 18
21 20 20 20 20 20 20 20 20 20 19 19 20 19 19 19 19 19 19 19 19 19 19 19 19 19 18 17 18 18 18 18 19 19 19 19 19 19 19 19 19 19 19 18 18 18 18 18 18 18 18 18 19 19 19 19 19 19 19 20 20 20 20 20 20 20 20 20 20 20 20 20 20 20 20 20 19 19 19 19 19 19 19 18 18
20 20 20 20 20 19 19 19 19 19 19 19 19 19 19 19 19 19 19 19 19 19 19 19 19 19 19 18 17 18 18 18 18 18 18 18 18 18 18 18 18 18 18 18 18 18 18 18 18 18 18 18 18 19 18 18 19 19 19 19 19 20 20 20 20 20 20 20 20 20 20 20 20 20 20 20 20 19 19 19 19 19 19 18 18
19 19 20 19 19 19 18 19 19 19 18 18 18 19 18 18 19 19 19 19 19 19 19 19 18 18 18 18 17 17 17 18 18 18 18 18 18 18 18 18 18 18 18 17 17 17 17 17 17 18 18 18 18 18 18 18 18 19 19 19 19 20 20 20 20 21 20 20 20 20 20 20 20 20 20 20 20 19 19 19 19 19 19 19 19
19 19 19 19 18 18 18 18 19 18 18 18 18 18 18 18 19 19 19 19 19 19 19 18 18 18 18 17 17 17 17 17 17 17 17 17 17 17 17 17 17 17 17 17 17 17 17 17 17 17 17 18 17 17 17 17 18 18 18 19 19 20 20 20 20 20 20 20 20 20 20 20 20 20 20 20 20 19 19 19 19 19 19 19 19
18 18 19 19 18 17 17 18 18 18 18 19 19 18 18 18 18 18 18 18 18 19 18 18 18 18 17 17 17 17 17 17 17 17 17 17 17 17 17 17 17 17 17 17 16 16 16 16 16 17 17 17 17 17 17 17 17 18 19 18 19 20 19 19 19 19 19 19 19 19 19 20 20 19 19 19 19 20 19 19 19 19 19 19 19
18 19 19 18 17 17 17 17 17 18 19 19 19 19 18 18 18 18 18 18 18 18 17 17 17 17 17 17 17 16 17 17 17 17 17 16 16 16 17 17 16 16 16 16 16 16 16 16 16 16 16 16 16 16 16 16 16 17 17 17 19 20 19 19 19 19 19 19 19 19 19 19 19 19 18 18 19 19 19 19 19 19 19 19 19
18 18 18 18 17 17 17 17 17 18 19 19 19 19 19 19 19 19 18 17 18 18 17 17 17 17 17 16 16 16 16 16 16 16 16 16 16 16 16 16 16 16 16 16 16 16 15 15 15 16 15 15 16 15 15 16 15 15 16 16 17 19 19 19 19 19 18 18 18 18 18 18 18 18 18 18 18 18 18 18 18 18 19 19 19
17 17 17 17 17 17 17 17 18 18 19 19 19 19 19 19 19 18 18 17 17 17 17 17 17 17 16 16 15 15 15 15 15 15 15 15 15 15 15 15 15 15 15 15 15 15 15 14 14 14 14 15 15 14 14 14 14 14 15 15 16 17 17 17 18 18 17 17 18 18 17 16 16 17 17 17 17 17 17 17 17 18 18 18 18
17 17 17 17 17 17 17 18 18 18 19 19 19 19 19 19 19 18 18 17 17 17 17 17 16 16 16 15 15 15 15 15 14 14 14 14 14 14 15 15 15 14 14 14 14 14 14 14 14 14 14 14 14 14 14 13 13 13 13 14 15 15 15 14 15 16 16 16 17 16 16 15 16 16 16 16 16 16 16 17 18 18 17 17 17
17 17 17 17 17 17 17 18 18 18 18 18 19 19 18 18 17 17 17 17 17 17 16 16 16 16 15 15 15 15 14 14 14 14 14 14 14 14 14 14 14 14 14 14 14 13 13 13 13 13 13 13 13 13 13 12 12 12 12 13 14 14 13 13 14 14 15 15 15 15 14 14 15 15 14 15 15 15 16 17 17 17 16 16 16
17 17 17 17 16 16 17 17 17 17 17 18 18 19 18 18 17 17 17 16 16 16 16 15 15 15 15 15 14 14 14 14 13 13 13 13 13 13 14 13 13 13 13 13 13 13 13 13 13 13 12 12 12 12 12 11 12 12 12 12 12 12 12 12 12 12 13 14 14 13 13 13 13 13 13 14 14 15 15 16 16 16 15 15 15
17 17 17 16 16 16 17 17 17 17 17 17 18 18 17 17 17 17 16 16 15 15 15 15 15 15 15 15 14 14 13 13 13 13 13 13 13 13 13 13 13 13 13 13 13 13 12 12 12 12 12 12 12 11 11 11 11 11 12 12 12 12 12 11 11 11 11 12 12 12 12 11 12 12 12 12 13 13 14 14 15 15 15 15 14
17 16 16 16 16 16 16 16 17 17 17 17 17 18 17 17 17 16 16 16 16 15 15 15 15 15 14 14 14 13 13 13 12 12 12 12 12 13 13 13 12 12 13 12 12 12 12 12 12 12 12 11 11 11 11 11 11 11 12 12 12 12 12 11 11 11 10 10 11 11 11 11 11 11 11 11 12 13 13 14 14 14 14 14 14
16 16 16 16 16 16 16 16 16 17 17 17 17 17 17 17 17 16 16 16 16 15 15 15 15 15 14 14 13 13 12 12 12 12 12 12 12 12 12 12 12 12 12 12 12 12 12 11 11 11 11 11 11 11 11 11 11 11 11 11 12 12 11 11 11 11 11 10 10 10 11 11 11 11 11 11 12 12 13 13 13 13 13 13 13
16 16 16 16 16 16 16 16 16 17 17 17 17 17 17 17 17 16 16 16 15 15 15 15 15 14 14 13 13 12 12 12 12 12 12 12 12 12 12 12 12 12 12 12 12 12 11 11 11 11 11 11 11 11 11 11 11 11 11 11 11 11 10 10 10 10 11 10 10 10 10 10 10 10 10 11 11 12 12 12 12 12 12 12 12
16 16 16 16 16 16 16 16 16 16 16 17 17 17 17 17 17 16 16 16 16 16 15 15 14 14 14 13 12 12 12 11 11 11 11 11 11 11 11 11 11 12 12 12 11 11 11 11 11 11 11 11 11 11 11 11 11 11 11 10 10 10 10 10 9 10 10 10 9 9 10 10 9 10 10 10 11 11 11 12 11 12 12 11 11
Height
809 808 809 809 810 809 810 810 811 811 812 812 813 815 816 818 819 821 822 823 823 823 824 824 824 824 825 825 825 825 826 826 827 827 827 828 828 828 828 828 828 828 829 829 829 829 829 829 829 829 829 829 828 827 827 826 826 826 827 827 828 828 828 829 829 829 829 829 830 831 831 831 831 831 831 831 831 831 830 830 830 830 830 830 830
806 807 808 809 809 809 810 810 812 812 812 813 814 816 816 819 820 821 822 823 824 824 825 825 825 825 826 826 826 826 827 827 827 828 828 828 828 829 829 829 829 830 830 830 830 830 830 830 830 830 830 829 829 828 827 827 827 827 827 828 828 829 829 829 830 830 830 830 831 831 832 832 832 832 832 832 832 832 831 831 831 831 831 831 831
804 807 807 808 809 809 810 810 811 812 813 813 815 816 817 819 820 822 822 824 825 825 826 825 826 826 827 827 827 827 827 828 828 829 829 829 830 830 830 830 830 831 831 831 831 831 831 831 831 831 831 830 829 829 828 828 827 828 828 829 829 830 830 830 831 831 831 831 832 832 832 832 832 833 833 833 833 832 832 832 832 832 832 832 832
804 806 807 808 809 809 810 810 811 812 813 814 815 817 818 819 821 822 823 824 825 826 826 826 827 827 828 828 828 828 828 829 829 829 830 830 830 831 831 831 831 831 831 832 832 832 832 832 832 831 831 830 830 829 829 828 828 829 829 830 830 831 831 832 832 832 832 832 833 833 833 833 833 833 833 833 833 833 833 833 833 833 833 833 832
802 804 806 807 808 809 810 810 811 812 814 815 816 817 818 820 821 823 823 825 826 827 827 828 828 828 829 829 829 829 829 830 830 830 830 831 831 832 832 832 832 832 832 832 832 833 833 833 832 832 832 831 831 830 830 829 829 830 830 831 831 832 832 833 833 833 834 834 834 834 834 834 834 834 834 834 834 834 834 834 834 834 833 833 833
801 803 805 807 808 809 809 810 811 813 814 815 816 817 819 820 822 823 824 825 826 827 828 829 829 830 830 830 830 830 831 831 831 831 831 832 832 833 833 833 833 833 833 833 833 833 833 833 833 833 832 832 831 831 830 830 831 831 831 832 833 833 834 834 834 835 835 835 836 836 836 835 835 835 836 835 835 835 834 834 834 834 834 834 834
801 802 805 806 807 809 809 810 811 813 814 815 817 818 819 821 822 824 825 826 827 828 829 830 830 831 831 831 831 831 831 831 832 832 832 833 833 834 834 834 834 834 834 834 834 834 834 834 834 834 833 833 832 832 831 831 832 832 833 833 834 834 835 835 835 836 836 836 837 838 837 836 836 836 837 836 835 835 834 834 834 834 834 834 834
801 802 804 806 807 809 810 810 812 813 815 816 817 819 820 821 823 824 826 827 828 829 830 831 831 832 832 833 832 832 832 832 833 833 833 833 834 834 834 835 835 835 835 835 835 835 835 835 834 834 834 833 833 833 832 832 833 833 833 834 834 835 835 836 836 836 836 837 837 838 838 837 837 837 837 837 836 835 834 834 834 834 834 834 833
801 802 804 806 807 809 810 811 812 814 815 817 818 819 821 822 824 825 827 828 829 830 831 832 832 833 833 834 833 833 833 834 834 834 834 834 835 835 835 835 835 835 835 835 835 835 835 835 835 835 834 834 834 833 833 833 833 834 834 834 835 835 836 836 836 837 837 837 837 838 838 838 837 837 837 837 837 836 835 835 834 834 834 834 834
801 802 804 805 807 809 810 812 813 815 816 817 819 821 822 823 825 826 828 829 830 831 832 832 833 834 834 834 834 834 834 834 835 835 835 835 835 835 835 836 836 836 836 836 836 836 836 835 835 835 835 834 834 834 834 834 834 834 834 835 835 836 836 836 836 837 837 837 838 838 838 838 838 837 837 837 837 836 836 835 835 835 834 834 834
801 803 804 805 807 809 810 813 814 816 817 819 820 822 823 824 826 827 828 829 831 832 832 833 834 834 835 835 835 835 835 835 835 835 836 836 836 836 836 836 836 836 836 836 836 836 836 836 836 835 835 835 835 835 835 835 835 835 835 835 835 836 836 836 837 837 838 838 838 838 838 838 838 837 837 837 837 837 836 835 835 835 835 835 834
802 803 804 806 808 810 811 813 815 817 818 820 822 823 825 825 827 828 829 830 831 832 833 834 834 835 835 836 836 836 836 836 836 836 836 836 836 836 836 836 836 836 836 837 836 837 836 836 836 836 836 836 836 835 835 835 835 835 835 836 836 836 836 837 837 837 839 839 838 838 838 838 838 838 837 837 837 837 836 836 835 835 835 835 835
802 803 805 807 808 811 812 815 816 818 820 821 823 824 826 826 827 828 829 830 832 833 833 834 835 836 836 836 837 836 836 836 836 836 837 836 837 836 836 837 836 836 837 837 837 837 837 837 837 837 836 836 836 836 836 836 836 836 836 836 836 837 837 837 837 837 839 839 838 838 838 838 838 838 838 837 837 837 836 836 836 835 835 835 835
801 804 805 807 809 812 813 816 817 819 821 822 824 825 826 827 828 829 830 831 832 833 833 834 835 836 836 837 837 837 837 837 837 837 837 837 837 837 837 836 836 836 836 837 837 837 837 837 837 837 837 837 837 836 836 836 836 836 837 837 837 837 837 837 837 838 839 839 838 838 839 839 838 838 838 838 837 837 836 836 836 836 835 835 835
801 803 806 808 810 813 815 816 817 819 821 822 824 825 826 827 828 829 830 831 832 833 834 835 835 836 837 837 837 837 838 837 837 837 837 837 837 837 837 837 836 836 836 837 837 837 837 837 838 838 838 837 837 837 837 837 837 837 837 837 838 837 838 838 838 838 839 839 838 839 839 839 839 838 838 838 838 837 837 837 836 836 836 835 835
801 803 806 809 811 813 815 817 818 820 821 822 824 825 827 827 829 829 830 831 832 834 834 835 836 837 837 837 838 838 838 838 838 838 837 837 837 837 837 837 836 836 836 837 837 837 838 838 838 838 838 838 838 838 837 838 838 838 838 838 838 838 838 838 838 838 839 839 839 839 839 839 839 839 839 838 838 837 837 837 837 837 836 836 836
802 803 806 809 812 813 815 817 819 820 822 823 824 826 827 828 829 830 831 832 833 834 834 835 836 836 837 837 837 838 838 838 838 838 838 838 838 838 837 837 836 836 836 837 837 837 838 838 838 839 839 839 838 838 838 838 838 838 839 838 838 838 838 838 838 839 839 839 839 839 839 839 839 839 839 838 838 838 838 837 837 837 837 836 836
803 804 806 809 811 814 816 818 820 821 823 824 826 827 828 829 830 830 832 832 833 834 835 835 836 836 837 837 838 838 839 838 839 838 838 838 838 838 838 837 837 836 837 837 837 838 838 839 839 839 839 839 839 839 839 839 839 839 839 839 839 839 838 838 839 839 839 839 839 839 839 839 839 839 838 838 838 838 838 837 837 837 837 837 837
804 806 807 810 812 815 817 819 821 821 823 825 826 828 829 830 830 831 832 833 834 835 835 835 836 837 837 837 838 838 839 839 839 839 839 838 838 838 838 838 837 837 837 837 838 838 839 839 840 840 840 840 839 839 839 839 839 839 839 839 839 839 839 839 839 839 839 839 838 838 838 838 838 838 838 838 838 837 837 837 837 837 836 837 837
805 807 809 811 813 816 818 820 821 822 824 825 827 828 830 831 832 833 833 834 835 835 835 835 836 837 837 838 838 839 839 839 839 839 839 839 838 838 838 838 838 838 838 838 838 839 839 839 840 840 840 840 840 840 840 840 840 840 840 840 840 839 839 839 839 839 838 839 838 838 837 837 838 838 837 837 837 837 836 836 836 836 836 836 836
806 808 810 813 814 817 819 821 822 824 825 826 828 829 831 832 833 834 834 835 835 835 835 836 837 837 838 838 839 839 839 839 840 840 839 839 839 838 839 839 839 839 839 839 839 839 839 840 840 840 840 840 840 840 840 840 840 840 840 840 840 840 839 839 838 838 838 838 838 837 837 837 837 837 836 836 836 836 835 835 835 835 835 835 835
805 808 811 813 815 819 820 822 823 825 827 828 829 830 832 832 833 834 834 835 835 835 836 837 837 837 838 838 839 839 839 840 839 840 839 839 839 839 839 839 840 839 840 840 840 840 840 840 840 840 840 840 840 840 840 840 840 840 841 840 840 840 839 839 838 838 838 838 838 837 837 837 836 836 836 836 836 835 835 835 834 834 834 834 834
805 808 811 813 816 819 821 822 824 826 827 828 829 830 832 832 834 834 834 835 835 836 836 837 838 838 838 838 839 839 840 840 840 840 839 840 840 840 840 840 840 840 840 840 840 840 840 840 840 840 840 840 840 840 840 840 840 840 840 840 840 840 839 839 838 838 838 838 837 837 836 836 836 835 835 835 835 835 835 834 834 834 833 833 833
805 807 810 814 817 820 822 823 824 826 827 828 830 831 832 833 834 835 835 836 836 837 837 838 838 838 839 839 839 839 840 840 841 840 840 840 840 840 840 840 840 840 840 840 840 840 841 841 841 841 840 841 841 840 840 840 840 840 840 840 840 839 839 839 838 837 838 837 837 836 836 835 835 835 835 834 834 834 834 833 833 832 832 832 832
806 809 811 814 817 820 822 824 825 826 827 828 829 830 832 833 834 836 837 837 837 838 838 839 838 839 839 839 840 840 840 841 841 841 840 841 841 841 840 840 840 840 840 840 840 840 840 841 841 841 841 841 841 840 840 840 839 839 839 839 839 839 839 838 837 837 837 837 836 836 835 835 835 834 834 833 833 832 832 832 831 831 830 830 830
809 810 812 815 817 820 822 824 825 826 827 827 829 830 831 833 835 836 838 838 838 839 839 839 839 840 840 840 840 840 840 841 841 841 841 841 841 841 840 840 840 840 840 840 840 840 840 840 841 841 841 841 840 840 840 840 839 838 838 839 839 839 838 838 837 838 837 836 836 835 835 834 834 833 833 832 832 831 831 830 830 829 829 829 828
813 813 814 816 818 820 823 824 825 826 827 828 829 830 832 834 836 837 839 839 839 840 840 840 840 840 840 840 840 841 840 840 841 841 841 841 841 841 840 841 841 840 840 840 840 840 840 840 840 840 841 841 841 840 840 840 839 838 838 838 838 838 837 837 837 837 836 835 835 834 834 834 833 832 832 831 831 831 830 830 829 828 828 827 827
818 817 816 817 819 821 823 824 825 826 827 828 830 831 833 834 836 838 839 840 841 841 842 842 842 841 841 841 840 841 841 841 841 841 841 841 841 841 841 841 841 841 840 841 840 840 840 840 840 840 841 841 841 841 840 840 839 839 839 838 838 838 837 837 836 836 835 834 834 834 833 833 832 832 831 831 830 830 829 829 828 828 827 826 825
821 820 819 818 820 821 823 824 825 826 827 828 830 831 833 835 837 838 840 842 843 843 844 844 843 843 842 841 841 841 841 841 841 841 841 841 841 841 841 841 841 841 841 841 840 840 840 840 840 840 840 840 840 840 839 839 839 839 839 838 838 837 837 836 835 835 835 834 833 833 832 832 831 831 830 830 830 830 829 828 827 827 826 825 824
821 822 820 819 820 822 823 824 824 826 827 828 830 831 832 833 834 836 839 841 844 845 845 845 845 844 843 842 842 841 841 841 841 841 841 841 841 841 841 841 841 841 841 841 840 840 840 840 840 840 840 840 840 840 839 839 838 838 838 838 837 837 836 835 835 834 834 833 833 832 832 831 830 830 829 829 828 828 827 827 826 825 824 824 823
819 822 822 821 821 823 824 824 824 825 826 828 830 831 831 832 832 832 833 837 843 846 847 846 846 846 845 844 843 842 842 841 841 842 842 842 841 841 841 841 841 841 841 841 841 840 840 840 840 840 840 839 840 839 839 838 838 838 837 837 836 836 835 834 834 833 833 832 832 831 831 830 829 828 828 827 827 826 825 825 824 824 823 822 822
815 820 824 822 822 824 825 824 824 825 826 828 829 830 831 832 833 832 831 833 840 847 849 848 847 847 846 845 844 843 842 841 841 842 842 842 842 841 842 841 841 841 841 841 841 841 840 840 840 840 840 839 839 839 839 838 837 837 836 836 835 835 834 833 833 832 832 831 830 830 829 829 828 827 827 826 825 824 823 823 822 822 821 821 821
813 819 823 822 823 824 825 825 825 825 826 826 826 827 829 830 833 834 834 835 838 844 848 850 849 848 848 847 846 845 843 842 841 841 842 842 841 841 841 841 841 841 841 842 841 841 840 840 840 840 839 839 839 838 838 838 837 837 836 835 834 834 833 832 832 831 831 830 829 828 828 827 827 826 825 824 824 822 821 821 820 820 819 819 819
813 818 822 822 823 824 825 825 825 826 826 826 826 826 828 829 830 832 834 836 839 841 844 848 850 850 849 848 847 846 845 843 842 842 841 841 841 842 842 842 842 841 842 842 841 841 841 841 840 840 839 839 839 838 837 837 837 836 835 835 834 833 832 831 830 830 829 829 828 827 826 826 825 824 823 822 822 821 820 819 819 818 818 817 817
815 818 821 822 823 824 825 825 826 826 826 827 827 827 829 829 829 831 832 835 839 842 843 846 848 850 851 849 848 847 846 844 843 843 842 841 841 841 842 842 842 842 842 841 841 842 841 841 841 840 839 839 838 837 837 837 836 836 835 834 833 832 831 830 829 829 828 828 827 826 825 824 824 823 822 821 820 819 819 818 817 816 816 816 815
818 820 820 821 823 824 825 825 825 826 826 826 827 828 829 829 829 831 833 835 838 841 843 846 847 848 851 851 850 847 847 846 845 844 843 843 842 842 842 842 842 842 841 841 841 841 841 840 840 840 839 838 838 837 837 836 835 835 834 833 832 831 830 829 828 827 827 827 826 826 824 823 823 822 821 819 819 818 818 817 816 815 815 815 814
821 821 820 821 823 824 824 824 825 826 826 827 828 828 829 829 829 831 833 836 838 839 841 844 847 848 849 851 851 849 848 847 846 845 843 843 844 844 844 844 843 843 842 842 841 841 841 840 840 840 840 839 839 838 836 835 834 834 833 832 831 830 829 828 827 826 826 826 825 825 824 822 821 821 820 819 818 817 817 816 815 814 814 814 813
820 822 822 824 825 824 824 824 825 825 826 827 828 829 829 829 829 830 833 835 837 838 839 841 845 847 847 850 852 850 849 848 847 845 844 844 844 845 845 845 845 844 843 843 842 842 842 842 841 841 841 840 839 838 837 835 834 833 832 831 830 829 828 826 826 825 825 825 824 824 823 822 821 820 819 818 817 816 816 815 814 813 813 813 812
820 822 824 825 826 826 826 825 825 825 825 826 827 828 829 829 829 830 832 835 836 837 838 839 842 844 846 851 852 850 850 849 847 846 845 845 845 845 846 845 845 844 844 843 843 843 842 843 842 842 841 841 840 839 838 836 834 833 832 831 829 828 827 826 825 825 825 825 824 824 823 822 820 819 818 817 816 815 815 814 813 813 812 812 811
820 823 824 825 826 827 827 826 825 824 824 825 827 828 829 829 829 830 832 834 835 836 838 839 840 841 845 850 850 849 850 849 848 847 846 846 846 846 846 846 846 845 845 844 844 844 843 843 842 842 841 841 840 839 838 836 833 831 830 830 829 828 827 825 824 824 825 825 824 823 822 821 820 818 817 816 816 814 813 813 812 812 811 810 809
821 823 823 825 826 827 827 826 825 824 823 824 825 826 827 828 828 829 831 834 835 835 837 839 839 840 844 848 848 849 850 850 849 848 847 847 847 847 848 847 847 846 846 845 845 845 844 843 843 842 841 841 840 839 838 835 832 830 828 828 828 827 827 825 824 824 825 824 824 823 822 821 819 818 818 816 816 815 813 812 811 810 809 808 807
821 823 823 824 825 826 827 826 825 823 822 823 824 825 826 826 826 828 830 833 833 832 834 837 838 840 844 846 847 849 849 850 849 849 848 848 848 848 849 848 848 847 846 846 846 845 844 843 842 842 842 841 841 840 838 836 835 833 830 828 826 825 825 824 823 824 825 824 824 823 822 821 819 818 818 816 816 815 814 813 811 810 808 807 805
822 823 823 824 825 825 825 824 824 823 822 823 823 824 825 825 826 827 829 830 831 831 833 836 838 841 844 845 847 849 849 850 850 849 849 848 849 849 849 849 848 847 847 846 845 845 844 843 842 842 842 841 842 841 840 838 838 836 834 832 830 828 826 824 823 824 825 825 824 823 822 820 819 818 817 816 815 814 814 813 811 810 808 806 804
823 823 824 824 824 824 824 823 822 822 822 823 823 824 824 825 827 828 829 829 831 832 834 837 839 841 844 846 847 849 850 850 850 850 849 849 850 850 850 849 848 848 847 847 846 845 845 844 843 843 842 842 842 842 842 841 840 838 837 837 835 833 833 830 827 826 826 825 824 823 822 820 819 818 817 815 815 814 813 812 810 810 808 805 803
823 823 824 824 824 823 823 822 821 821 822 823 823 823 824 825 827 828 830 830 831 833 834 837 840 843 845 846 848 849 850 850 850 850 850 850 850 850 850 849 848 848 847 847 847 846 846 845 844 844 843 844 844 844 844 843 842 841 841 841 839 839 840 836 831 827 826 826 825 823 823 822 820 819 817 816 815 813 812 811 810 809 807 805 803
823 824 824 825 824 823 822 822 821 822 823 823 824 824 824 825 826 827 829 830 832 834 835 838 841 843 845 846 848 849 849 850 850 850 850 850 850 850 849 849 848 848 848 848 847 847 846 845 845 845 845 845 845 845 845 844 844 843 843 843 844 844 842 839 836 831 826 826 826 825 825 824 823 821 819 817 816 814 813 812 810 809 808 806 804
823 824 825 825 825 823 822 822 822 823 824 824 825 825 825 825 826 828 829 830 832 834 835 837 840 843 845 846 848 849 849 850 850 851 851 850 850 849 849 848 848 848 848 848 848 848 847 846 846 846 846 846 845 845 846 845 845 844 844 844 844 844 843 841 841 838 832 827 825 826 826 825 824 823 821 820 818 816 814 813 811 810 809 807 804
822 824 825 825 824 824 823 823 824 824 825 826 826 826 826 827 828 829 831 832 832 834 836 838 841 843 845 847 848 849 849 850 850 851 851 850 849 849 849 848 848 849 849 848 848 848 847 847 847 847 846 846 846 846 846 846 845 845 845 844 844 844 843 842 842 841 839 833 826 824 825 825 826 825 823 822 819 817 816 814 813 811 810 808 805
823 824 825 825 825 824 825 825 825 826 826 827 827 827 828 828 829 830 831 833 834 836 837 839 841 843 845 847 848 849 850 851 851 851 851 850 849 849 849 849 849 849 849 849 848 848 848 847 847 847 847 847 847 847 847 846 846 846 845 844 844 844 843 843 842 840 840 838 832 828 824 822 823 825 824 823 820 818 817 816 814 812 811 809 806
823 824 824 825 825 826 827 827 827 827 827 828 828 828 829 829 830 831 831 833 835 836 837 839 841 843 845 847 848 850 851 852 852 851 851 850 850 849 849 849 849 849 849 849 848 848 848 848 848 848 848 848 848 848 848 847 847 847 846 845 844 844 843 842 842 841 840 839 838 835 831 826 823 823 824 824 822 819 817 816 814 813 811 809 807
822 823 824 825 826 827 827 828 828 828 828 829 829 829 830 830 830 830 831 832 834 835 837 839 842 844 846 848 850 851 852 852 852 851 851 851 850 850 849 849 849 849 849 849 849 849 849 849 850 850 850 850 850 849 849 849 848 847 847 846 845 845 844 843 843 842 841 841 839 837 835 832 829 826 825 825 824 822 819 817 815 813 812 810 807
Wind_Speed
18 19 21 19 18 17 16 17 17 17 18 19 19 19 19 17 17 16 14 13 14 15 15 16 16 16 15 16 16 16 16 15 15 14 14 14 14 14 14 13 14 14 14 13 13 12 13 13 12 11 11 11 10 10 9 8 7 8 10 10 11 11 12 12 13 13 14 17 17 16 14 13 14 16 17 18 17 15 15 15 15 16 15 15 15
20 20 21 20 18 18 18 17 17 17 19 19 19 20 19 18 17 16 14 14 15 15 15 15 15 15 15 15 15 16 15 15 15 14 14 14 14 14 13 13 13 14 13 13 12 12 12 12 12 11 11 11 11 11 9 7 7 8 10 11 12 13 14 14 14 14 16 17 16 15 15 14 13 14 15 15 14 13 13 13 14 14 14 14 14
24 23 22 20 19 18 18 17 17 17 19 20 20 20 20 19 17 16 15 15 16 15 15 15 15 14 14 14 14 15 15 15 15 14 13 14 14 13 13 13 13 13 12 12 12 12 12 11 11 10 11 11 11 11 10 8 7 10 12 13 15 15 15 16 17 17 18 17 15 14 14 13 12 11 11 10 10 11 13 14 13 14 13 13 13
27 24 22 21 19 19 19 18 18 18 19 19 21 20 20 19 17 16 16 17 16 15 15 15 15 14 14 13 14 14 14 14 14 14 14 14 14 13 13 13 13 13 12 12 12 11 11 10 10 10 10 10 11 12 11 9 9 12 15 16 17 16 14 15 17 18 17 17 16 15 14 12 13 11 10 9 9 10 13 14 13 14 13 12 12
28 25 23 21 20 19 19 19 18 18 18 19 21 20 20 19 18 17 18 17 16 15 15 14 14 14 13 13 13 13 14 14 14 14 14 14 13 13 12 12 12 12 11 11 11 11 10 9 9 10 9 10 12 12 11 11 13 15 17 17 16 15 14 14 14 16 15 13 14 14 14 13 14 14 13 13 12 13 14 13 12 12 13 13 12
28 26 24 22 21 20 19 19 18 18 18 19 20 20 20 20 19 18 18 17 15 15 14 14 13 13 13 13 13 13 14 14 14 14 14 14 13 12 12 11 11 11 11 10 10 10 9 9 9 9 9 10 12 12 11 14 16 17 17 15 14 13 13 12 11 11 10 8 10 10 10 11 13 14 12 13 12 12 13 12 12 11 12 13 13
28 26 24 23 22 21 20 20 19 19 19 20 21 21 21 21 20 19 18 17 15 14 14 13 13 13 12 13 13 13 13 13 13 14 14 14 12 12 11 11 11 10 10 10 9 9 8 8 9 9 8 9 11 11 11 16 17 16 15 14 13 11 10 9 8 7 5 5 8 7 5 8 11 12 11 10 10 10 11 11 12 12 12 12 11
27 26 24 23 22 22 21 20 20 20 20 21 22 22 22 22 21 19 17 16 15 14 13 13 13 12 12 13 13 13 13 13 13 13 13 13 12 11 11 10 10 10 9 9 8 8 8 8 8 8 7 8 10 10 13 16 16 15 14 13 12 10 9 8 7 6 6 6 7 8 4 4 8 11 10 10 10 9 8 9 9 10 10 10 10
26 25 24 23 22 21 20 21 22 21 22 21 22 22 23 22 20 19 16 16 15 14 14 14 13 13 12 13 13 13 13 13 13 12 12 12 11 10 10 9 9 8 8 8 7 7 7 7 7 6 6 7 10 10 14 15 14 13 12 11 10 9 8 7 6 6 7 8 10 10 4 3 7 8 9 9 9 8 6 8 8 8 9 10 11
26 25 24 24 22 20 21 22 23 22 22 22 22 22 23 22 20 18 16 16 15 14 14 14 13 13 12 12 13 13 13 12 12 12 12 10 9 9 9 8 7 7 7 7 7 6 7 7 7 6 7 7 9 11 14 14 13 12 11 10 9 8 7 7 8 7 9 13 14 9 3 1 6 6 7 7 8 7 6 7 8 9 9 10 11
25 25 25 24 22 22 23 23 23 23 23 23 22 23 23 21 19 18 17 15 15 15 14 14 13 13 12 12 12 12 12 12 12 11 11 10 9 8 8 7 6 6 6 6 6 6 6 7 7 7 8 8 9 11 13 13 12 11 10 9 8 7 8 9 9 8 10 14 12 5 2 1 6 6 4 4 5 5 3 4 7 9 9 9 9
25 26 25 23 22 23 23 22 22 23 23 23 22 22 21 19 18 17 16 16 15 15 15 14 13 13 12 12 11 11 11 11 10 9 9 8 8 7 6 5 5 5 5 5 5 6 6 7 7 7 8 9 9 10 12 12 11 10 9 8 7 7 8 9 9 9 9 12 7 3 1 3 6 6 3 1 2 3 2 3 5 7 7 9 8
27 26 25 25 24 23 22 21 21 21 21 21 21 20 18 18 18 17 17 16 16 15 15 14 13 13 12 11 11 10 10 9 8 8 7 7 6 5 4 4 4 4 4 5 5 6 7 7 7 7 8 9 10 9 11 12 10 9 8 8 8 8 8 9 9 9 8 10 6 2 2 4 6 7 4 2 2 3 2 4 5 5 6 8 8
29 26 26 26 25 22 22 22 21 21 21 20 20 19 18 18 18 18 17 17 16 15 15 14 13 12 11 10 9 9 8 8 8 7 7 6 6 5 4 4 3 3 4 5 6 6 7 7 7 6 7 8 9 9 10 11 10 9 8 7 7 8 8 9 8 9 7 9 5 1 2 4 6 8 6 4 3 3 3 4 6 5 6 6 7
30 28 27 25 24 22 22 22 22 22 22 21 20 19 18 18 18 18 17 17 16 15 15 14 13 12 10 9 9 8 8 8 7 7 7 6 6 6 5 4 4 3 4 5 6 6 6 7 7 6 6 7 8 9 9 10 9 8 7 7 6 7 7 8 7 8 7 8 5 1 3 4 6 9 8 7 4 2 3 4 5 4 5 5 7
29 29 28 26 24 23 22 21 22 22 22 22 20 19 18 18 18 17 18 17 16 15 15 14 13 11 10 9 8 8 7 7 7 6 6 5 6 6 6 5 5 4 4 5 6 7 7 6 6 6 6 6 7 8 8 9 9 8 7 6 6 6 7 9 8 9 8 6 3 2 3 5 7 10 10 9 5 2 2 3 4 4 4 5 7
29 29 29 27 24 23 22 22 22 22 22 22 19 18 18 18 18 17 17 16 16 15 14 13 12 10 9 8 8 7 7 6 6 5 5 5 5 6 7 6 6 5 4 5 6 7 7 6 6 6 6 5 5 7 7 8 9 8 7 6 5 6 6 8 7 8 7 5 2 3 3 6 9 11 12 10 5 2 2 2 2 3 4 6 6
28 28 28 27 25 23 22 22 22 22 22 21 19 17 17 18 17 17 17 16 15 14 13 12 11 10 9 8 7 7 6 6 5 5 4 4 4 6 7 7 7 7 4 5 6 7 7 6 5 5 5 5 4 5 7 7 8 8 7 6 5 5 5 6 5 6 6 3 2 4 4 7 10 12 12 10 5 2 1 2 3 3 3 5 6
27 27 27 26 24 23 22 22 22 23 22 21 19 17 17 17 17 17 16 15 14 13 12 11 10 9 8 8 8 7 7 6 6 5 5 5 4 6 8 8 9 9 8 5 4 5 6 6 5 5 5 4 4 4 6 7 8 9 7 6 5 5 4 5 5 6 5 5 5 4 5 7 9 12 12 9 5 3 2 2 3 4 4 4 5
26 26 25 24 23 22 22 22 22 22 22 20 19 18 17 16 16 16 16 14 13 12 12 11 11 10 9 9 9 8 7 6 6 6 7 7 6 6 7 9 10 11 12 9 6 4 5 5 4 4 3 3 3 2 4 6 8 8 7 5 4 3 3 3 4 8 4 6 7 5 6 6 7 10 11 8 5 4 3 3 3 4 4 3 4
25 25 24 23 22 22 22 22 21 20 20 19 19 19 17 16 15 15 15 14 13 12 12 11 11 10 9 8 7 7 6 6 5 5 7 9 7 6 7 8 9 10 12 12 9 5 3 4 4 3 2 2 2 1 2 3 5 5 4 2 1 2 3 3 4 8 6 5 8 7 6 5 6 8 9 8 6 5 4 3 3 3 3 2 1
27 25 25 25 23 22 22 21 20 18 18 18 19 19 17 16 15 15 15 14 13 12 12 11 11 10 8 7 6 4 4 4 4 4 5 8 7 6 6 7 7 7 8 10 10 9 4 2 3 3 2 1 1 0 1 1 3 2 0 1 2 2 2 4 4 7 8 7 8 8 6 5 7 7 8 9 7 6 5 4 3 3 4 1 2
25 26 27 26 24 23 22 21 20 18 17 18 18 19 18 16 15 15 14 14 12 12 11 10 10 8 7 6 3 2 4 4 4 3 3 6 6 6 5 5 6 6 6 6 8 8 7 4 1 2 2 2 2 1 2 2 1 1 4 4 4 3 2 3 5 7 9 10 8 8 8 7 7 7 8 10 9 8 7 6 6 5 5 2 2
23 27 28 26 24 23 22 22 21 19 18 17 17 18 18 16 15 15 13 13 11 11 10 9 8 7 7 5 3 6 8 6 4 2 1 2 3 4 4 3 3 3 4 5 5 5 5 5 4 2 1 2 3 2 3 4 4 5 6 7 6 4 3 3 5 7 11 13 10 9 10 9 8 8 10 11 11 10 8 8 8 7 7 4 4
25 27 27 26 25 24 23 22 20 20 19 18 18 18 16 15 14 13 12 11 10 10 9 7 6 6 6 6 7 8 8 6 6 5 3 1 2 2 2 2 2 2 3 5 5 5 4 3 3 3 3 3 4 5 5 7 8 8 9 10 9 8 7 6 7 9 11 14 13 12 10 9 9 10 12 12 11 11 10 9 10 10 9 7 6
24 26 26 25 25 26 24 22 20 18 18 19 19 18 16 13 12 11 10 10 10 9 8 6 7 8 7 8 9 7 6 6 4 4 3 2 2 2 3 4 4 3 4 6 6 6 5 3 5 5 4 4 6 8 9 9 10 11 10 11 11 10 9 9 10 10 11 12 12 11 10 10 11 12 13 14 13 12 12 11 11 11 11 10 9
19 21 23 24 24 26 24 22 20 18 18 19 18 17 16 13 10 8 8 8 9 9 9 9 10 9 7 7 8 6 5 4 3 1 1 2 2 2 2 4 4 4 5 6 6 6 5 5 6 6 7 8 9 11 12 11 10 11 11 12 11 10 10 11 11 10 12 13 11 9 9 11 12 13 14 14 14 13 12 13 12 12 12 11 11
13 17 20 22 24 25 23 22 20 18 17 17 16 16 15 13 10 8 7 6 8 10 12 11 9 8 7 7 6 4 3 2 3 2 0 1 1 1 1 3 3 4 4 4 5 4 4 5 6 5 6 7 8 9 9 9 7 8 10 11 11 12 12 12 13 12 12 13 12 10 9 10 11 12 14 14 15 15 13 14 14 14 13 12 13
12 16 19 22 24 23 21 20 18 17 17 16 16 14 14 13 9 8 8 7 7 10 13 10 7 7 7 6 5 4 3 1 1 1 1 2 2 1 2 2 2 3 2 3 3 3 3 4 6 6 7 8 8 9 8 7 7 7 8 9 10 12 13 12 13 13 12 13 15 15 14 13 13 12 13 14 15 15 15 15 15 16 15 14 14
15 17 19 22 22 20 19 18 15 16 18 16 15 15 14 13 9 9 9 6 5 7 10 8 6 7 6 5 5 4 3 2 1 2 2 3 2 2 3 1 1 3 2 2 2 4 5 5 6 7 9 10 10 10 10 9 9 9 10 9 10 11 11 11 12 12 13 15 15 16 16 16 15 15 15 15 15 16 17 17 18 17 16 15 15
20 17 17 20 20 18 18 17 14 17 18 15 16 17 15 14 13 15 15 10 6 5 6 7 5 5 5 3 3 3 2 1 1 2 3 4 2 2 3 1 2 3 3 3 3 4 5 6 7 8 9 11 12 11 11 12 12 12 12 11 12 12 13 12 12 12 12 13 14 15 16 16 16 16 17 17 18 19 19 19 20 19 18 17 17
23 18 17 20 19 17 17 15 14 17 17 15 18 18 15 14 12 15 16 13 8 4 4 4 4 4 4 4 2 2 3 3 3 4 4 4 4 4 3 2 2 4 5 4 4 4 5 6 7 8 9 10 12 11 11 12 13 13 13 12 13 14 14 13 14 13 11 12 14 15 15 16 17 17 17 18 19 21 21 20 20 20 20 19 18
23 22 21 20 19 18 17 16 16 18 15 16 19 19 17 13 10 12 12 12 10 6 3 1 2 3 4 5 4 3 4 4 5 6 5 5 6 7 5 4 5 5 6 6 5 6 6 7 8 9 9 9 10 10 11 13 13 14 13 13 14 14 14 14 14 14 14 15 15 16 16 17 18 18 18 18 19 21 22 21 20 20 21 21 19
24 24 22 20 19 18 18 18 17 16 13 15 18 18 17 13 11 13 13 12 9 7 6 2 1 2 3 6 6 5 6 6 7 7 7 7 7 7 7 7 7 8 7 8 8 8 7 8 9 10 10 9 10 10 11 13 13 14 14 14 15 15 15 15 16 17 17 15 14 16 18 18 18 19 19 18 19 19 20 21 21 21 21 22 21
26 24 22 20 19 18 18 18 15 13 12 13 17 16 14 12 12 14 15 12 8 8 9 6 3 3 4 5 5 7 7 7 7 7 7 9 7 7 9 9 9 9 9 9 9 9 9 9 10 11 12 11 11 12 12 13 14 14 15 15 15 15 15 16 17 17 16 14 14 16 18 18 18 18 19 19 19 18 19 20 20 20 20 21 22
24 23 22 21 19 17 17 17 14 13 12 12 15 15 14 13 13 14 14 11 10 12 10 7 6 5 4 5 5 8 8 7 7 7 8 10 10 9 10 11 10 10 10 10 11 10 11 11 10 12 13 14 14 14 14 15 15 15 15 15 15 16 17 17 17 17 15 14 14 15 17 18 17 17 19 19 19 18 18 18 19 19 20 21 21
22 21 21 20 19 17 17 17 15 14 13 13 14 13 13 14 16 16 14 12 13 14 13 10 9 9 9 9 10 11 11 10 10 10 11 11 11 11 10 11 11 10 10 11 11 10 10 10 10 11 12 13 14 15 17 16 15 15 14 15 16 17 18 18 17 16 15 14 13 14 15 17 17 17 18 18 19 18 18 18 19 19 20 21 21
21 19 19 18 18 18 18 17 16 15 14 14 14 14 15 16 17 17 16 15 16 16 16 16 14 13 14 13 13 13 13 12 12 12 13 12 12 11 11 11 10 8 8 8 9 8 9 9 10 10 10 12 14 17 18 16 15 14 13 15 15 15 16 16 17 17 15 14 13 13 14 15 16 17 17 17 17 17 18 18 18 19 20 20 21
19 18 18 17 16 17 18 18 18 17 16 16 16 15 17 18 19 19 18 18 19 19 20 20 18 17 18 15 13 12 11 12 12 13 14 13 12 11 12 12 10 8 7 7 9 10 10 11 11 11 10 11 15 18 18 17 16 14 13 14 13 13 15 15 15 15 13 13 13 14 14 14 15 15 15 15 15 17 18 18 19 19 20 20 20
18 18 18 17 17 18 18 19 20 19 17 17 17 17 20 21 22 22 22 23 22 21 22 21 20 20 17 13 12 11 10 11 12 12 13 13 12 11 11 10 10 9 8 9 10 11 12 12 12 12 12 10 14 19 19 18 17 16 16 15 13 13 13 11 10 9 9 10 13 15 15 16 17 17 16 16 17 17 17 18 19 20 21 21 21
18 18 19 19 19 19 19 19 19 19 18 18 18 20 21 22 23 24 24 25 24 23 23 22 20 19 15 12 11 10 10 10 10 10 11 11 11 10 9 9 9 9 9 10 10 10 12 13 12 12 13 13 15 20 22 19 18 20 18 17 16 12 10 9 11 14 16 15 18 18 18 19 17 17 17 17 18 19 19 20 22 22 22 23 23
19 18 19 20 19 18 19 19 20 20 18 19 20 21 20 20 21 23 25 25 24 23 23 20 18 17 14 12 12 10 10 9 9 9 9 10 9 8 8 9 9 10 10 9 9 10 12 13 13 12 13 13 14 20 23 19 17 17 13 13 14 11 10 8 9 16 20 17 19 20 20 22 21 21 20 19 21 21 20 22 24 24 24 26 26
19 19 20 20 18 19 20 21 22 21 19 20 22 21 19 19 21 22 24 25 24 22 21 18 16 15 14 12 11 11 11 11 10 9 9 9 9 9 10 10 11 11 10 10 11 12 13 14 14 14 14 14 14 19 21 20 19 15 8 6 6 8 9 10 16 21 19 18 19 21 23 25 24 24 23 24 27 25 24 26 26 26 26 27 28
18 19 20 20 18 19 21 22 23 21 20 21 22 21 21 21 21 21 22 24 24 22 20 18 15 14 13 12 11 11 11 12 11 11 10 9 9 10 11 11 11 11 10 11 13 14 14 14 14 15 15 16 16 17 17 20 22 16 7 3 3 5 4 9 18 18 15 17 18 20 24 26 26 26 26 27 28 28 28 28 27 30 31 27 25
17 19 19 19 19 20 21 21 22 22 21 22 23 23 24 23 23 23 22 23 23 21 21 19 15 14 13 12 10 10 10 10 11 11 10 10 10 10 11 12 13 12 12 12 14 15 15 15 15 15 16 17 15 16 16 18 21 19 12 5 3 3 2 9 14 8 12 16 15 21 24 26 27 26 29 30 29 30 30 29 29 31 31 29 27
16 17 18 18 19 20 21 22 23 23 23 24 24 24 24 24 25 24 22 22 20 20 21 19 16 14 12 11 10 9 9 9 10 11 11 11 11 11 13 14 14 14 14 15 16 16 16 16 15 15 17 17 16 17 18 18 18 20 19 13 8 7 5 9 7 5 12 11 12 20 22 27 28 24 28 31 30 31 29 31 32 29 29 31 31
15 16 17 19 19 20 21 22 24 24 24 24 23 24 25 24 24 22 21 22 22 21 20 18 15 13 11 9 9 9 9 10 11 12 13 12 12 12 13 14 15 15 16 17 17 16 17 17 15 16 18 18 19 20 19 18 18 19 20 18 16 15 13 12 6 4 8 7 12 19 21 26 25 22 28 30 30 31 30 32 30 28 29 29 30
16 18 18 19 19 20 20 21 22 22 21 20 20 22 23 23 23 23 23 23 23 21 19 17 14 11 11 11 11 11 11 12 12 11 13 14 14 13 13 14 15 15 17 18 17 15 16 17 17 18 19 20 20 20 19 19 18 17 18 17 15 15 16 16 12 7 4 5 11 16 22 26 21 20 27 29 31 31 30 30 27 28 29 27 28
19 19 19 19 19 19 20 20 20 20 18 18 18 20 22 23 24 25 24 23 21 20 18 16 14 12 14 13 11 11 11 12 13 12 13 15 15 14 14 16 16 16 17 18 17 16 17 18 19 19 20 20 20 20 20 20 18 17 18 18 16 14 14 16 17 13 7 5 7 10 20 25 20 21 26 28 30 29 28 28 26 29 29 27 30
20 20 19 19 20 21 22 21 20 20 19 19 20 21 22 24 24 24 25 23 21 19 17 16 14 12 13 12 11 11 11 11 13 13 14 15 15 16 16 17 18 17 18 19 18 17 17 18 19 19 19 20 20 20 20 20 19 19 21 20 18 16 13 13 17 17 11 9 7 7 16 20 17 20 25 27 27 26 27 28 28 30 30 29 32
21 21 20 19 21 22 23 23 21 21 20 20 21 22 21 21 21 21 22 21 19 18 18 17 15 13 13 13 12 12 12 13 13 14 15 15 16 17 17 18 18 17 18 20 18 16 17 18 19 19 18 18 19 19 20 19 19 21 23 24 22 21 18 15 17 18 13 10 8 7 13 18 16 19 25 25 23 23 25 26 28 29 29 31 33
Wind_Direction
140 138 135 134 130 125 123 124 124 126 126 127 127 128 128 125 123 118 113 111 113 112 109 104 99 98 97 99 99 97 96 95 93 94 96 97 99 100 101 100 101 100 97 93 88 84 81 77 71 64 59 57 56 54 53 57 67 85 96 99 101 99 96 99 102 98 99 100 96 96 94 89 89 92 95 100 100 88 81 81 85 86 83 79 75
145 140 137 137 133 129 127 127 126 126 127 129 129 130 128 127 125 120 120 120 119 115 110 105 103 103 102 102 101 100 99 97 96 96 97 99 100 101 102 101 101 99 97 92 87 84 82 76 68 61 57 56 55 52 50 53 63 82 95 98 97 95 92 93 95 91 92 95 93 95 96 94 91 93 99 101 97 83 76 78 79 80 80 79 77
142 139 139 137 135 133 130 129 128 127 129 131 131 131 130 129 127 125 127 124 121 116 112 109 106 106 105 104 102 101 100 99 99 97 97 99 101 101 101 102 102 100 96 90 86 83 80 73 65 57 55 56 54 49 45 50 68 87 95 100 103 102 99 95 94 91 85 80 78 81 85 94 98 99 101 97 88 76 74 77 74 73 74 74 77
140 139 139 139 137 136 133 131 130 129 129 132 134 133 132 131 130 131 130 126 123 119 115 112 110 109 108 105 103 102 100 100 100 99 99 99 99 99 100 101 101 101 96 91 85 82 80 73 64 57 55 55 52 45 43 57 80 95 102 107 111 110 105 102 100 95 87 74 64 63 61 75 92 94 95 91 84 80 79 79 75 73 73 72 77
140 139 139 140 139 138 135 133 132 131 131 133 135 135 135 134 135 136 132 129 126 121 117 113 112 110 107 104 104 103 101 100 99 100 101 99 98 98 99 97 98 99 97 92 84 81 79 70 61 56 56 52 50 44 49 77 95 104 109 113 114 111 108 107 105 102 99 78 57 56 49 58 81 82 81 82 77 80 83 82 78 74 72 73 75
139 138 138 140 141 140 137 135 134 134 133 134 136 137 137 137 139 137 133 131 127 121 117 114 112 109 107 104 103 102 101 101 101 103 103 101 99 97 96 95 97 98 96 89 81 77 74 68 59 54 51 48 49 46 68 98 105 110 112 114 113 107 105 103 103 105 107 85 63 66 50 49 76 79 77 82 77 80 87 88 85 80 74 74 77
136 136 137 141 141 140 138 136 136 136 135 135 136 137 138 139 139 136 134 132 126 119 117 115 113 110 107 105 104 102 102 101 102 105 104 103 100 96 94 94 96 96 92 83 76 75 74 68 59 55 46 44 50 54 89 109 111 113 112 112 111 107 102 96 95 93 89 77 76 91 72 50 82 91 82 87 80 76 90 97 95 89 83 80 81
134 136 139 141 140 140 140 138 138 137 136 136 136 136 138 139 138 136 133 130 125 120 119 116 112 111 108 106 104 103 103 102 103 104 106 106 103 100 97 96 97 96 91 85 82 82 80 72 63 58 47 44 53 72 104 115 114 114 113 111 108 104 98 92 84 74 61 65 92 127 125 55 91 101 92 95 88 82 93 97 100 97 88 85 82
135 138 141 141 139 139 140 139 138 138 136 136 135 136 137 138 138 135 131 129 126 123 120 116 114 113 112 108 105 104 103 102 104 105 108 109 107 105 101 98 99 96 89 84 84 84 79 69 64 59 56 50 57 90 115 118 118 115 113 107 103 95 86 79 65 60 63 84 125 145 153 59 84 96 99 100 96 96 90 80 94 102 87 85 82
139 141 142 140 139 141 140 138 137 136 135 134 134 134 137 139 137 134 132 130 127 124 121 118 117 115 114 110 107 106 106 106 108 109 111 112 110 107 103 102 101 95 86 79 76 81 78 64 57 56 63 58 64 104 123 122 122 117 113 104 97 87 76 65 63 70 83 110 135 148 166 56 59 73 102 101 95 95 82 73 86 92 85 86 84
141 143 142 138 139 142 139 136 134 133 132 131 132 134 137 139 137 135 134 132 128 125 123 121 119 117 115 112 109 109 111 110 110 112 112 111 107 105 106 104 97 92 87 76 73 84 82 63 58 63 69 65 71 110 129 128 126 120 113 105 97 84 73 64 71 80 97 124 143 159 166 48 32 45 96 112 106 98 79 72 88 94 87 86 82
141 143 140 137 139 139 136 134 133 132 130 130 132 135 137 138 136 135 133 131 129 126 124 124 121 119 116 115 114 113 114 112 111 112 108 107 103 102 101 97 89 90 89 80 79 91 89 66 64 75 77 72 73 108 135 135 129 125 116 108 97 81 70 62 75 82 104 143 166 208 208 8 18 29 45 107 116 99 83 68 95 107 91 86 80
142 143 139 139 140 138 136 137 136 134 132 133 135 136 138 138 136 135 134 133 130 129 127 126 125 122 120 119 117 113 113 113 115 114 110 108 104 99 91 88 89 90 93 90 91 100 95 74 73 82 82 78 73 102 138 140 134 131 120 111 96 76 65 60 78 79 100 159 183 231 260 355 17 18 13 14 68 75 72 59 75 102 90 88 78
142 142 141 140 139 140 140 141 140 138 138 138 139 139 141 140 138 137 136 135 133 132 130 128 126 124 121 117 113 110 109 109 108 108 110 109 104 96 86 83 82 91 98 101 102 108 104 83 81 84 84 82 75 94 133 145 140 137 124 110 85 63 58 61 83 75 88 170 189 237 265 355 16 19 10 352 21 55 49 57 67 83 81 85 76
144 142 140 139 140 143 144 145 144 144 145 144 143 143 143 142 141 140 138 137 136 133 129 127 124 122 118 114 110 107 104 102 98 98 101 101 96 86 76 71 69 89 102 111 114 117 115 95 87 83 85 85 78 89 125 148 145 140 126 101 75 60 58 57 76 67 75 174 193 285 286 336 359 10 3 342 351 43 41 60 75 75 59 71 77
145 143 140 141 142 145 147 149 149 150 150 147 145 144 145 145 142 141 140 137 136 133 128 126 123 120 115 111 107 105 101 96 90 85 83 79 76 70 61 55 58 82 109 122 126 128 126 108 93 84 82 84 82 86 113 145 148 141 123 99 83 68 62 54 69 62 62 175 205 321 294 334 349 355 349 339 334 337 25 50 74 66 40 52 70
144 143 141 142 144 147 152 155 154 154 151 146 145 147 146 146 144 142 140 137 135 133 129 126 122 119 115 112 109 106 100 93 85 75 68 62 60 61 57 49 49 65 107 131 133 138 137 121 102 86 80 82 84 84 100 135 148 142 125 110 95 74 65 55 71 60 51 179 204 346 318 344 348 348 341 336 324 294 18 15 38 54 37 41 52
142 142 142 143 147 151 156 158 157 155 150 147 148 149 148 147 145 143 140 137 136 133 130 127 124 122 119 117 115 110 101 92 84 78 72 60 56 62 63 57 51 56 81 125 138 142 144 133 112 91 84 81 83 83 89 120 144 145 132 121 102 79 62 48 64 40 21 212 242 329 320 342 346 346 340 336 328 294 8 353 9 26 26 37 27
141 143 143 145 149 153 157 157 157 155 152 151 150 149 149 149 146 143 140 137 136 134 131 128 126 123 116 113 111 101 97 94 80 76 75 64 65 68 67 64 58 59 66 88 126 143 149 145 128 103 91 85 88 88 89 111 132 139 135 128 107 81 60 47 47 25 0 252 256 292 298 324 337 344 342 336 329 314 333 343 350 352 13 42 13
143 145 144 146 150 154 156 156 155 154 155 154 151 150 149 148 148 144 140 139 138 136 135 132 128 119 113 112 109 98 97 96 74 70 69 60 65 64 63 67 66 65 63 67 83 126 153 155 149 127 105 93 92 91 100 118 128 134 133 130 111 64 29 29 22 17 3 240 250 280 293 306 324 339 344 336 325 319 316 321 341 353 19 47 6
146 147 145 150 153 154 154 154 154 153 155 154 150 149 147 148 148 145 143 144 143 141 141 136 129 120 117 116 111 101 99 94 67 65 62 52 58 62 62 67 69 68 62 60 63 74 133 166 172 164 141 113 96 92 109 129 138 146 146 145 140 347 344 343 354 6 358 267 262 277 284 291 316 333 340 335 323 314 310 302 316 344 3 37 335
152 151 152 156 154 153 151 150 150 151 155 154 152 149 148 152 148 147 149 150 147 146 144 137 129 120 118 116 104 93 104 95 55 52 54 47 57 69 66 66 67 67 63 57 54 54 63 144 181 192 207 216 319 280 212 168 144 150 199 310 319 310 336 355 359 356 338 310 284 271 273 286 306 327 335 330 320 309 312 304 299 316 324 334 238
155 152 154 156 152 153 152 149 150 152 155 156 156 153 152 154 150 152 155 153 151 149 146 136 129 120 111 102 79 99 130 104 55 25 27 46 57 63 67 69 62 54 55 51 46 45 46 50 127 209 232 259 311 289 215 209 192 295 319 330 334 322 332 345 348 344 320 311 295 271 277 291 304 321 325 323 319 314 315 309 304 303 302 306 235
152 148 150 153 152 155 153 153 156 155 158 160 159 158 157 156 154 156 157 154 153 153 150 139 131 119 105 98 114 142 143 128 124 181 305 50 55 48 58 62 49 34 28 22 18 21 27 34 37 39 349 310 323 309 252 257 260 273 300 319 328 326 330 318 322 327 308 298 287 281 285 289 299 310 313 313 312 313 313 303 298 294 292 290 239
146 143 147 153 155 155 156 156 157 159 162 162 159 159 155 154 155 155 158 156 153 156 150 140 145 145 141 158 157 153 155 154 172 203 245 336 357 15 25 14 19 11 360 358 356 346 337 347 358 8 24 10 341 323 294 278 272 270 283 306 316 315 315 312 310 305 298 294 284 283 289 288 296 302 303 302 301 303 305 298 293 292 291 290 265
144 142 146 153 155 154 157 154 152 155 153 151 152 153 150 150 148 149 155 155 155 152 148 157 178 177 179 188 182 175 172 174 188 209 237 279 309 321 340 343 353 349 335 336 335 334 337 332 315 306 305 314 317 316 310 296 274 268 283 300 305 310 311 308 306 298 300 308 298 289 294 298 301 300 298 296 294 296 298 295 290 287 286 288 281
141 142 147 151 153 154 156 152 150 149 143 144 150 151 154 152 148 154 161 165 163 154 160 178 187 189 194 193 186 183 180 176 165 171 203 197 277 282 287 313 330 331 315 314 318 326 347 357 333 313 301 303 310 308 309 309 280 261 284 297 293 303 312 308 305 305 307 311 311 307 308 307 302 296 295 293 292 293 295 291 285 282 282 282 281
146 146 150 149 152 155 154 152 155 154 145 148 155 159 163 159 160 177 186 191 190 182 182 184 192 198 197 187 171 157 167 169 134 106 66 204 286 265 273 295 312 322 310 300 313 327 341 353 345 336 332 332 333 321 313 325 312 277 288 293 289 297 303 305 304 304 302 299 303 308 308 305 301 298 296 294 292 290 289 287 284 279 278 276 276
147 149 152 150 152 156 155 157 162 161 154 155 159 162 164 159 162 182 187 192 194 191 186 184 193 194 187 177 159 125 122 137 101 56 2 334 340 8 327 307 306 313 311 295 304 317 330 346 340 336 341 339 334 324 315 322 330 317 310 301 298 302 299 303 306 301 292 288 291 295 298 300 296 294 292 292 291 287 283 283 285 278 272 270 270
138 150 153 150 153 153 154 158 153 151 154 157 158 156 151 152 153 152 157 169 180 183 182 187 193 187 182 167 155 126 99 106 58 24 1 344 344 359 346 353 344 329 329 317 329 333 333 340 337 339 341 337 330 325 321 319 321 320 318 312 311 314 307 306 311 304 291 285 286 288 294 299 297 291 287 286 285 282 279 280 282 278 273 266 257
141 151 152 145 147 148 151 156 148 151 156 151 148 149 148 155 160 148 143 151 171 192 194 196 189 178 174 153 155 132 74 66 70 33 11 1 3 15 4 29 18 358 349 329 340 347 343 343 344 346 344 343 338 331 328 326 327 324 319 318 317 315 312 309 310 308 296 288 291 292 292 299 300 294 288 286 285 283 279 276 276 276 276 268 253
138 141 146 143 144 147 149 154 158 165 161 145 144 151 155 158 163 156 150 151 159 200 232 208 177 159 155 137 127 93 44 42 58 43 41 42 44 35 26 46 29 15 3 343 348 1 358 356 353 351 348 345 338 334 338 337 336 332 324 322 321 316 315 315 313 313 308 303 304 303 301 303 302 296 292 291 290 287 282 276 274 274 276 272 258
140 144 151 148 145 149 151 156 168 174 165 152 154 161 162 155 151 149 147 143 142 164 203 253 131 128 142 128 93 74 62 71 73 52 48 63 59 38 31 36 32 31 16 3 10 11 6 6 2 355 350 343 338 341 347 344 338 332 326 322 318 315 315 314 312 310 310 311 311 306 304 305 303 300 298 297 295 292 287 281 279 277 275 273 264
146 151 153 147 146 153 158 162 171 176 167 159 162 166 164 152 140 138 140 141 135 146 157 133 60 50 100 106 88 72 62 73 88 74 54 61 64 39 34 40 40 39 21 14 19 14 11 8 1 356 353 348 347 350 348 344 340 333 328 322 315 312 310 307 305 305 307 310 306 302 303 306 307 306 305 303 301 297 292 287 285 282 277 275 272
146 149 150 151 153 154 159 164 168 171 163 159 164 165 159 144 134 134 138 139 127 130 138 126 104 59 49 70 93 94 73 72 90 90 73 65 57 27 26 33 36 36 24 21 19 14 15 9 5 1 358 358 358 358 352 344 339 335 331 327 321 316 310 306 305 304 306 308 302 300 304 307 308 310 311 310 306 303 299 296 293 288 284 280 278
147 152 153 155 156 154 161 165 163 164 155 149 159 160 151 139 132 132 132 129 119 121 124 115 106 91 49 24 65 95 84 72 74 80 80 69 59 42 33 31 34 37 33 30 22 17 16 10 13 11 3 3 1 359 354 347 342 336 331 326 322 317 311 306 305 305 305 304 301 302 305 306 308 311 313 312 310 308 307 305 302 298 294 290 287
153 159 158 157 157 157 163 162 157 159 150 139 143 145 142 133 130 131 127 122 119 118 118 109 93 79 67 42 49 69 74 75 75 80 82 73 68 63 52 45 43 46 46 40 31 23 17 8 12 17 13 9 6 3 357 352 346 336 331 328 326 320 314 309 305 305 304 302 303 305 307 308 310 312 313 314 313 313 312 310 308 306 303 297 295
159 161 158 157 156 156 158 153 152 153 147 141 135 132 134 129 129 129 122 120 117 114 110 105 96 85 79 67 60 67 73 81 84 87 87 81 79 76 72 66 58 59 62 54 39 26 23 17 15 20 25 25 20 12 3 355 347 340 337 336 331 322 316 313 308 305 303 300 303 309 312 310 310 313 313 313 315 314 312 312 311 309 307 304 302
157 153 152 156 150 147 149 145 147 147 145 146 137 131 132 129 127 124 120 117 115 114 109 108 105 94 84 77 75 75 75 81 85 89 87 84 83 81 81 79 70 66 62 53 38 28 24 20 16 14 21 34 27 16 8 358 349 342 339 340 338 334 330 326 320 314 308 306 309 311 313 309 307 311 311 311 314 314 312 311 311 311 311 310 308
150 149 153 158 150 144 145 142 142 142 143 147 143 137 134 131 128 125 122 118 116 116 109 106 104 98 95 90 85 80 75 77 77 82 85 82 77 75 78 77 70 60 49 42 35 32 26 16 14 10 10 20 21 18 12 2 354 343 339 346 349 348 356 12 27 20 3 354 349 337 328 320 310 306 307 311 315 313 313 313 312 313 312 312 312
151 157 158 156 151 148 147 143 141 143 145 146 146 144 138 133 129 126 123 118 115 114 105 101 102 103 105 97 85 77 74 74 67 72 81 80 72 67 64 61 58 47 40 35 30 33 28 17 12 10 12 14 20 23 15 8 5 350 340 345 351 4 28 49 58 36 19 14 12 7 2 356 343 332 328 328 325 318 315 315 313 311 310 312 313
156 159 158 152 151 151 149 145 145 147 147 146 146 145 140 135 131 126 122 115 111 110 105 101 102 101 97 90 84 76 74 74 67 69 75 77 74 65 57 52 49 43 38 37 38 39 31 24 19 18 24 27 31 27 18 19 14 354 339 338 346 1 6 0 358 6 10 8 9 13 14 15 9 1 360 359 354 345 336 332 325 318 315 313 311
157 154 152 151 153 154 151 149 149 149 149 149 148 146 140 136 135 130 122 112 108 110 108 104 103 100 95 90 83 74 72 71 69 67 67 75 75 70 66 61 57 55 51 50 53 47 37 35 32 29 30 33 40 33 27 31 22 6 357 348 345 342 345 352 342 347 2 6 8 14 13 10 6 4 7 6 6 5 359 353 349 345 339 327 316
159 152 152 154 157 156 154 153 150 149 150 148 145 140 136 134 131 126 120 115 113 113 108 101 100 102 97 89 78 70 67 66 69 69 67 70 71 75 75 66 63 62 59 57 54 47 40 38 35 36 34 33 39 33 31 36 33 30 21 328 325 343 353 350 334 333 359 8 9 13 8 1 359 3 6 3 2 1 358 357 358 359 358 353 339
159 157 159 159 158 157 154 152 150 148 147 143 140 138 135 132 125 121 118 116 114 112 106 98 96 98 93 84 72 61 58 60 66 67 65 66 71 82 80 68 64 60 59 60 56 49 45 40 36 40 41 40 42 35 35 38 40 46 44 18 343 359 335 334 330 324 355 2 5 8 5 359 0 4 2 359 357 356 359 1 0 1 7 12 8
161 159 161 159 156 153 150 149 149 146 143 140 141 140 138 134 131 128 124 115 108 106 105 101 98 95 88 76 60 51 51 55 65 67 65 67 76 86 82 72 67 64 65 63 58 52 48 44 42 49 49 44 46 44 40 40 44 50 50 50 44 32 6 350 348 321 337 351 3 4 3 0 4 6 0 359 357 357 2 3 3 7 11 13 13
159 157 156 157 154 150 147 146 146 144 142 141 141 141 139 137 134 130 125 117 108 106 109 108 102 95 85 69 55 60 66 65 71 74 70 69 76 84 81 74 70 71 70 64 58 57 52 48 51 59 55 47 48 48 43 40 43 46 47 51 48 43 39 33 31 332 328 338 351 358 0 359 3 4 1 360 357 357 360 1 6 12 10 8 11
152 151 151 153 150 145 144 144 142 142 142 139 142 143 139 135 130 125 121 118 115 114 115 111 104 94 81 68 58 68 79 75 71 75 75 69 70 78 81 75 72 74 73 64 59 59 56 53 57 61 56 48 48 49 48 45 42 40 40 42 42 43 46 43 36 19 348 316 334 349 351 354 1 3 1 358 355 356 357 359 6 8 5 5 5
146 147 147 146 142 139 140 140 135 133 131 128 134 138 134 131 129 124 121 120 119 118 116 111 105 95 87 80 68 68 78 79 73 75 79 73 70 75 79 75 72 75 73 65 60 58 57 55 56 57 54 49 48 49 49 46 43 36 28 25 29 37 44 38 28 23 19 347 337 340 343 347 354 358 358 357 356 355 355 359 3 4 5 4 356
143 143 141 137 133 132 131 128 123 120 119 120 125 129 130 130 130 126 122 121 119 115 111 108 106 102 97 91 82 75 77 79 76 76 77 76 73 74 77 75 72 74 71 65 62 59 58 58 55 55 54 49 47 48 48 46 43 36 31 32 37 40 38 30 23 20 21 12 354 339 343 345 343 346 353 356 356 353 355 360 1 0 2 359 352
141 139 137 133 130 128 123 119 116 116 118 122 125 127 127 127 125 124 122 120 117 113 111 112 112 112 107 100 95 88 80 76 76 76 76 76 75 74 76 75 72 73 70 64 61 60 63 62 56 54 54 52 48 47 47 46 42 39 41 46 46 44 39 33 26 21 21 15 355 342 345 344 336 338 346 352 355 355 356 359 358 358 357 353 349